Change the Weather History Date:

Wednesday, January 15, 2014

  Actual Average Record
Temperature  
Mean Temperature -2 °F -  
Max Temperature 0 °F 9 °F 62 °F (2005)
Min Temperature -5 °F 1 °F -16 °F (1999)
Degree Days  
Heating Degree Days 68    
Moisture  
Dew Point -8 °F    
Average Humidity 77    
Maximum Humidity 85    
Minimum Humidity 71    
Precipitation  
Precipitation 8.08 in - - ()
Sea Level Pressure  
Sea Level Pressure 29.96 in    
Wind  
Wind Speed 23 mph (NNE)    
Max Wind Speed 31 mph    
Max Gust Speed 37 mph    
Visibility 7 miles    
Events      
Averages and records for this station are not official NWS values.
T = Trace of Precipitation, MM = Missing Value Source: NWS Daily Summary

Daily Weather History Graph

Daily Weather History Graph

Search for Another Location

Airport or City:

Trip Planner

Search our weather history database for the weather conditions in past years. The results will help you decide how hot, cold, wet, or windy it might be!

Date:

Astronomy

Jan. 15, 2014 Rise Set
Actual Time 11:48 AM AKST 5:24 PM AKST
Civil Twilight 10:43 AM AKST 6:30 PM AKST
Nautical Twilight 9:40 AM AKST 7:33 PM AKST
Astronomical Twilight 8:43 AM AKST 8:30 PM AKST
Moon 6:05 PM AKST (1/15) 10:46 AM AKST (1/15)
Length of Visible Light 7h 46m
Length of Day
5h 35m
Full, 100% of the Moon is Illuminated
Jan 15
Full
Jan 15
Full
Jan 23
Last Quarter
Jan 30
New
Feb 6
First Quarter

Hourly Weather History & Observations

Time (AKST) Temp. Windchill Dew Point Humidity Pressure Visibility Wind Dir Wind Speed Gust Speed Precip Events Conditions
12:16 AM -4.0 °F -29.6 °F -7.6 °F 85% 29.81 in 10.0 mi North 25.3 mph - N/A   Overcast
12:36 AM -2.2 °F -24.7 °F -5.8 °F 85% 29.82 in 7.0 mi North 19.6 mph - N/A   Overcast
12:56 AM -2.2 °F -24.1 °F -9.4 °F 71% 29.83 in 5.0 mi NE 18.4 mph - N/A   Overcast
1:16 AM -2.2 °F -24.1 °F -5.8 °F 85% 29.84 in 9.0 mi NE 18.4 mph - N/A   Overcast
1:36 AM -2.2 °F -25.2 °F -9.4 °F 71% 29.85 in 10.0 mi NNE 20.7 mph - N/A   Mostly Cloudy
1:56 AM -2.2 °F -25.7 °F -9.4 °F 71% 29.85 in 10.0 mi NNE 21.9 mph 25.3 mph N/A   Mostly Cloudy
2:16 AM -2.2 °F -25.7 °F -7.6 °F 78% 29.86 in 5.0 mi NNE 21.9 mph - N/A   Overcast
2:36 AM -2.2 °F -26.7 °F -7.6 °F 78% 29.86 in 3.0 mi North 24.2 mph - N/A   Overcast
2:56 AM -2.2 °F -26.2 °F -7.6 °F 78% 29.86 in 5.0 mi North 23.0 mph - N/A   Overcast
3:16 AM -2.2 °F -26.7 °F -7.6 °F 78% 29.87 in 10.0 mi North 24.2 mph - N/A   Overcast
3:36 AM -2.2 °F -23.5 °F -7.6 °F 78% 29.88 in 10.0 mi North 17.3 mph 26.5 mph N/A   Overcast
3:56 AM -2.2 °F -25.2 °F -5.8 °F 85% 29.88 in 10.0 mi NNE 20.7 mph - N/A   Overcast
4:16 AM -2.2 °F -25.2 °F -7.6 °F 78% 29.89 in 10.0 mi NNE 20.7 mph - N/A   Overcast
4:36 AM -2.2 °F -22.9 °F -7.6 °F 78% 29.90 in 10.0 mi NNE 16.1 mph - N/A   Overcast
4:56 AM -2.2 °F -25.7 °F -7.6 °F 78% 29.90 in 10.0 mi NNE 21.9 mph - N/A   Overcast
5:16 AM -2.2 °F -25.7 °F -5.8 °F 85% 29.91 in 10.0 mi NNE 21.9 mph - N/A   Overcast
5:36 AM -2.2 °F -25.2 °F -7.6 °F 78% 29.92 in 10.0 mi NNE 20.7 mph 26.5 mph N/A   Overcast
5:56 AM -2.2 °F -25.2 °F -5.8 °F 85% 29.92 in 8.0 mi North 20.7 mph 24.2 mph N/A   Overcast
6:16 AM -2.2 °F -26.7 °F -7.6 °F 78% 29.92 in 5.0 mi North 24.2 mph - N/A   Overcast
6:36 AM -2.2 °F -25.7 °F -5.8 °F 85% 29.92 in 7.0 mi North 21.9 mph 26.5 mph N/A   Overcast
6:56 AM -0.4 °F -23.8 °F -5.8 °F 78% 29.93 in 4.0 mi NNE 23.0 mph - N/A   Overcast
7:16 AM -0.4 °F -23.3 °F -5.8 °F 78% 29.94 in 9.0 mi NNE 21.9 mph - N/A   Overcast
7:36 AM -0.4 °F -22.8 °F -7.6 °F 72% 29.95 in 10.0 mi NNE 20.7 mph - N/A   Overcast
7:56 AM -0.4 °F -22.8 °F -7.6 °F 72% 29.95 in 8.0 mi NNE 20.7 mph - N/A   Overcast
8:16 AM -0.4 °F -23.8 °F -7.6 °F 72% 29.95 in 7.0 mi NNE 23.0 mph 26.5 mph N/A   Overcast
8:36 AM -0.4 °F -24.3 °F -7.6 °F 72% 29.95 in 9.0 mi NNE 24.2 mph - N/A   Overcast
8:56 AM -0.4 °F -23.8 °F -5.8 °F 78% 29.96 in 9.0 mi NNE 23.0 mph - N/A   Overcast
9:16 AM -0.4 °F -24.3 °F -7.6 °F 72% 29.97 in 5.0 mi NNE 24.2 mph - N/A   Overcast
9:36 AM -0.4 °F -24.7 °F -7.6 °F 72% 29.97 in 2.5 mi NNE 25.3 mph 28.8 mph N/A   Overcast
9:56 AM -0.4 °F -23.8 °F -5.8 °F 78% 29.98 in 6.0 mi NNE 23.0 mph - N/A   Overcast
10:16 AM -0.4 °F -23.3 °F -7.6 °F 72% 29.98 in 7.0 mi NNE 21.9 mph - N/A   Overcast
10:36 AM -0.4 °F -22.3 °F -5.8 °F 78% 29.99 in 7.0 mi NNE 19.6 mph - N/A   Overcast
10:56 AM -0.4 °F -22.3 °F -7.6 °F 72% 29.99 in 8.0 mi NNE 19.6 mph 27.6 mph N/A   Overcast
11:16 AM -0.4 °F -23.8 °F -7.6 °F 72% 29.98 in 9.0 mi NNE 23.0 mph - N/A   Overcast
11:36 AM -0.4 °F -24.3 °F -7.6 °F 72% 29.99 in 10.0 mi NNE 24.2 mph 27.6 mph N/A   Overcast
11:56 AM -0.4 °F -24.7 °F -7.6 °F 72% 29.99 in 10.0 mi NNE 25.3 mph - N/A   Overcast
12:16 PM -2.2 °F -26.2 °F -7.6 °F 78% 30.00 in 5.0 mi NNE 23.0 mph - N/A   Overcast
12:36 PM -2.2 °F -26.7 °F -7.6 °F 78% 30.01 in 5.0 mi NE 24.2 mph 27.6 mph N/A   Overcast
12:56 PM -2.2 °F -26.7 °F -5.8 °F 85% 30.01 in 3.0 mi NE 24.2 mph 29.9 mph N/A   Overcast
1:16 PM -2.2 °F -25.7 °F -5.8 °F 85% 30.02 in 5.0 mi NNE 21.9 mph - N/A   Overcast
1:36 PM -2.2 °F -26.2 °F -9.4 °F 71% 30.03 in 5.0 mi NE 23.0 mph - N/A   Overcast
1:56 PM -2.2 °F -25.2 °F -5.8 °F 85% 30.03 in 10.0 mi NNE 20.7 mph 25.3 mph N/A   Overcast
2:16 PM -2.2 °F -26.2 °F -7.6 °F 78% 30.03 in 10.0 mi NNE 23.0 mph - 0.17 in   Overcast
2:36 PM -2.2 °F -26.2 °F -7.6 °F 78% 30.03 in 5.0 mi NNE 23.0 mph 27.6 mph 0.55 in   Overcast
2:56 PM -2.2 °F -27.6 °F -7.6 °F 78% 30.02 in 2.5 mi NNE 26.5 mph - 0.70 in   Mostly Cloudy
3:16 PM -2.2 °F -27.1 °F -7.6 °F 78% 30.03 in 2.5 mi NNE 25.3 mph 29.9 mph 0.28 in   Overcast
3:36 PM -2.2 °F -27.1 °F -7.6 °F 78% 30.02 in 8.0 mi NNE 25.3 mph 31.1 mph 0.41 in   Mostly Cloudy
3:56 PM -2.2 °F -26.7 °F -9.4 °F 71% 30.02 in 9.0 mi NNE 24.2 mph - 0.66 in   Partly Cloudy
4:16 PM -2.2 °F -25.7 °F -7.6 °F 78% 30.02 in 8.0 mi NNE 21.9 mph 26.5 mph 0.17 in   Partly Cloudy
4:36 PM -2.2 °F -26.7 °F -7.6 °F 78% 30.02 in 3.0 mi NNE 24.2 mph 31.1 mph 0.38 in   Mostly Cloudy
4:56 PM -2.2 °F -27.1 °F -7.6 °F 78% 30.03 in 3.0 mi NNE 25.3 mph 28.8 mph 0.55 in   Overcast
5:16 PM -2.2 °F -27.1 °F -9.4 °F 71% 30.02 in 3.0 mi NNE 25.3 mph - 0.17 in   Overcast
5:36 PM -2.2 °F -27.1 °F -7.6 °F 78% 30.03 in 2.5 mi NNE 25.3 mph - 0.36 in   Overcast
5:56 PM -2.2 °F -27.6 °F -9.4 °F 71% 30.02 in 5.0 mi NNE 26.5 mph - 0.71 in   Overcast
6:16 PM -2.2 °F -26.7 °F -7.6 °F 78% 30.02 in 7.0 mi NNE 24.2 mph 29.9 mph 0.20 in   Overcast
6:36 PM -2.2 °F -27.6 °F -9.4 °F 71% 30.02 in 5.0 mi NNE 26.5 mph 31.1 mph 0.38 in   Overcast
6:56 PM -2.2 °F -27.6 °F -7.6 °F 78% 30.01 in 4.0 mi NNE 26.5 mph 31.1 mph 0.57 in   Overcast
7:16 PM -2.2 °F -27.1 °F -9.4 °F 71% 30.02 in 3.0 mi NNE 25.3 mph 31.1 mph 0.09 in   Overcast
7:36 PM -2.2 °F -27.1 °F -9.4 °F 71% 30.02 in 4.0 mi NNE 25.3 mph 32.2 mph 0.30 in   Overcast
7:56 PM -4.0 °F -30.0 °F -9.4 °F 78% 30.01 in 1.8 mi NNE 26.5 mph 33.4 mph 0.75 in   Overcast
8:16 PM -4.0 °F -29.6 °F -9.4 °F 78% 30.01 in 4.0 mi NNE 25.3 mph - 0.26 in   Overcast
8:36 PM -4.0 °F -30.9 °F -9.4 °F 78% 30.01 in 7.0 mi NNE 28.8 mph - 0.65 in   Overcast
8:56 PM -5.8 °F -32.0 °F -11.2 °F 77% 30.01 in 10.0 mi NNE 25.3 mph 31.1 mph 1.00 in   Overcast
9:16 PM -5.8 °F -33.3 °F -9.4 °F 84% 30.01 in 10.0 mi NNE 28.8 mph 33.4 mph 0.27 in   Overcast
9:36 PM -5.8 °F -32.9 °F -9.4 °F 84% 30.00 in 10.0 mi NNE 27.6 mph 31.1 mph 0.37 in   Overcast
9:56 PM -5.8 °F -33.3 °F -11.2 °F 77% 30.00 in 10.0 mi NNE 28.8 mph 33.4 mph 0.69 in   Overcast
10:16 PM -5.8 °F -34.1 °F -11.2 °F 77% 30.00 in 8.0 mi NNE 31.1 mph - 0.58 in   Overcast
10:36 PM -5.8 °F -34.1 °F -9.4 °F 84% 30.00 in 7.0 mi NNE 31.1 mph 36.8 mph 0.74 in   Overcast
10:56 PM -5.8 °F -32.4 °F -11.2 °F 77% 30.00 in 5.0 mi NNE 26.5 mph - 1.33 in   Overcast
11:16 PM -5.8 °F -33.7 °F -9.4 °F 84% 29.99 in 5.0 mi NNE 29.9 mph 33.4 mph 0.40 in   Overcast
11:36 PM -5.8 °F -33.7 °F -11.2 °F 77% 29.99 in 5.0 mi NNE 29.9 mph - 0.78 in   Overcast
11:56 PM -5.8 °F -32.4 °F -9.4 °F 84% 29.99 in 5.0 mi NNE 26.5 mph - 1.12 in   Overcast